[[{"header":{"parameterUnit":"m.s-1","parameterCategory":1,"la1":30.2992,"la2":30.254,"lo1":-89.0895,"lo2":-89.0443,"dy":0.0025,"dx":0.0025,"nx":19,"ny":19,"refTime":"2026-03-30T03:00:00:Z","depth":0,"parameterNumber":2,"parameterNumberName":"U-component_of_WINDS"},"data":[0,0,0,-4.4696,-4.4699,-4.4819,-4.482,-4.4984,-4.4985,0,0,0,0,0,0,0,0,0,0,0,-4.4669,-4.467,-4.4696,-4.4699,-4.4819,-4.482,-4.4984,-4.4985,0,0,0,0,0,0,0,0,0,0,0,-4.4668,-4.467,-4.4672,-4.47,-4.4819,-4.482,-4.4983,-4.4888,0,0,0,0,0,0,0,0,0,0,-4.477,-4.4752,-4.4669,-4.4672,-4.4701,-4.4819,-4.482,-4.4884,-4.4894,-4.4934,0,-4.4974,0,-4.4983,-4.4997,-4.4998,0,0,0,-4.4693,-4.4744,-4.4769,-4.4672,-4.4702,-4.4819,-4.4763,-4.4889,-4.4902,-4.4949,-4.4976,-4.4982,-4.4985,-4.4998,-4.4999,-4.5258,-4.5259,0,0,-4.4686,-4.4694,-4.4761,-4.4777,-4.4762,-4.476,-4.4767,-4.4897,-4.4926,-4.4977,-4.4986,-4.4988,-4.5,-4.5001,-4.5257,-4.5258,0,0,0,-4.4671,-4.469,-4.4712,-4.4771,-4.4792,-4.4763,-4.4772,-4.492,-4.4927,-4.4987,-4.499,-4.5001,-4.5003,-4.5255,-4.5257,-4.534,0,0,0,-4.4667,-4.4681,-4.4709,-4.4715,-4.479,-4.4858,-4.4793,-4.4918,-4.4932,-4.4989,-4.5001,-4.5004,-4.5253,-4.5256,-4.5334,-4.5377,0,0,0,-4.4658,-4.468,-4.4701,-4.4715,-4.4768,-4.4856,-4.487,-4.4921,-4.4935,-4.4998,-4.5005,-4.5252,-4.5256,-4.5329,-4.5368,-4.5447,0,0,0,-4.465,-4.4771,-4.4702,-4.4839,-4.4767,-4.4908,-4.4869,-4.4973,-4.5037,-4.5002,-4.5253,-4.5257,-4.5327,-4.5363,-4.5441,-4.5513,-4.5545,0,0,-4.4807,-4.4791,-4.4871,-4.4812,-4.4967,-4.4888,-4.5055,-4.5105,-4.5103,-4.5206,-4.5212,-4.5336,-4.5368,-4.5446,-4.572,-4.5745,0,0,0,-4.4923,-4.498,-4.502,-4.5083,-4.5126,-4.5166,-4.519,-4.5209,-4.5297,-4.5159,-4.5386,-4.5405,-4.545,-4.5484,-4.5505,-4.5543,-4.5274,-4.5273,-4.5273,-4.5155,-4.5148,-4.5279,-4.5287,-4.5349,-4.5374,-4.5423,-4.5452,-4.5425,-4.548,-4.5509,-4.5677,-4.5717,-4.5733,-4.5773,-4.5548,-4.5548,-4.5549,-4.5549,-4.5383,-4.5463,-4.5428,-4.5542,-4.5533,-4.5629,-4.5658,-4.5637,-4.5723,-4.5654,-4.5693,-4.5616,-4.5761,-4.5795,-4.5555,-4.5554,-4.5553,-4.5553,-4.5552,-4.5533,-4.557,-4.5593,-4.5684,-4.5755,-4.5758,-4.5844,-4.5833,-4.5823,-4.5862,-4.5892,-4.589,-4.5886,-4.5878,-4.5878,-4.5879,-4.588,-4.588,-4.588,-4.5678,-4.5701,-4.5776,-4.5834,-4.5873,-4.5924,-4.5952,-4.599,-4.6029,-4.6014,-4.6014,-4.5981,-4.5777,-4.5725,-4.5889,-4.5888,-4.5887,-4.5886,-4.5885,-4.5909,-4.5855,-4.597,-4.601,-4.6078,-4.6149,-4.6135,-4.6214,-4.6244,-4.6286,-4.6246,-4.6098,-4.6079,-4.6062,-4.6018,-4.6248,-4.6248,-4.6248,-4.6248,-4.6033,-4.6024,-4.6139,-4.6204,-4.6266,-4.6266,-4.6395,-4.6419,-4.6434,-4.6452,-4.6418,-4.636,-4.6343,-4.6334,-4.6311,-4.627,-4.6559,-4.656,-4.656,-4.6174,-4.6171,-4.6283,-4.63,-4.6352,-4.6397,-4.6517,-4.6592,-4.6598,-4.6572,-4.6465,-4.6452,-4.6359,-4.6329,-4.6298,-4.6263,-4.6188,0,0]},{"header":{"parameterUnit":"m.s-1","parameterCategory":1,"la1":30.2992,"la2":30.254,"lo1":-89.0895,"lo2":-89.0443,"dy":0.0025,"dx":0.0025,"nx":19,"ny":19,"refTime":"2026-03-30T03:00:00:Z","depth":0,"parameterNumber":3,"parameterNumberName":"V-component_of_WINDS"},"data":[0,0,0,2.7406,2.7409,2.7559,2.7559,2.7738,2.774,0,0,0,0,0,0,0,0,0,0,0,2.7357,2.7358,2.7406,2.741,2.7559,2.7559,2.7738,2.774,0,0,0,0,0,0,0,0,0,0,0,2.7356,2.7358,2.7359,2.741,2.7559,2.7559,2.7738,2.7629,0,0,0,0,0,0,0,0,0,0,2.7486,2.7435,2.7357,2.7359,2.7411,2.7558,2.7559,2.7624,2.7636,2.7667,0,2.7694,0,2.772,2.7751,2.7752,0,0,0,2.7413,2.7425,2.7471,2.7359,2.7413,2.7558,2.7492,2.7631,2.7644,2.7682,2.7697,2.7704,2.7723,2.7752,2.7753,2.7929,2.7929,0,0,2.7405,2.738,2.7462,2.7479,2.7458,2.7488,2.7497,2.7639,2.7652,2.7697,2.7708,2.7726,2.7754,2.7755,2.7928,2.7929,0,0,0,2.7379,2.7374,2.7416,2.7472,2.75,2.7492,2.7503,2.7646,2.7662,2.771,2.7728,2.7755,2.7757,2.7927,2.7928,2.794,0,0,0,2.7374,2.7359,2.7413,2.7399,2.7497,2.7575,2.7506,2.7652,2.7669,2.7727,2.7755,2.7758,2.7927,2.7928,2.7938,2.7949,0,0,0,2.7349,2.7356,2.7376,2.7397,2.7461,2.7573,2.7598,2.7656,2.768,2.7752,2.7759,2.7926,2.7928,2.7937,2.7946,2.799,0,0,0,2.7313,2.738,2.7376,2.7458,2.7459,2.758,2.7597,2.7687,2.775,2.7755,2.7927,2.7928,2.7936,2.7944,2.7988,2.8023,2.8035,0,0,2.7384,2.7388,2.7438,2.7439,2.7555,2.7559,2.7676,2.7755,2.7783,2.7878,2.7883,2.7939,2.7946,2.799,2.8111,2.812,0,0,0,2.7452,2.7488,2.7524,2.7586,2.7651,2.7708,2.7773,2.7804,2.7887,2.7828,2.7967,2.7972,2.7998,2.8016,2.8024,2.805,2.7935,2.7935,2.7935,2.7513,2.755,2.7637,2.7692,2.7752,2.7822,2.7873,2.7926,2.794,2.7973,2.8001,2.8071,2.8091,2.8097,2.8123,2.8022,2.8022,2.8023,2.8023,2.762,2.7677,2.7703,2.7796,2.7835,2.7912,2.7983,2.7993,2.8071,2.8051,2.8077,2.8053,2.8107,2.8132,2.8024,2.8024,2.8023,2.8023,2.8023,2.7664,2.7699,2.7738,2.7835,2.7905,2.7958,2.8035,2.8065,2.8094,2.8119,2.8154,2.8154,2.8159,2.8134,2.8134,2.8134,2.8135,2.8135,2.8135,2.7694,2.7739,2.78,2.788,2.7927,2.7992,2.8066,2.8112,2.817,2.8187,2.8187,2.8201,2.8106,2.8082,2.8139,2.8138,2.8138,2.8137,2.8137,2.7789,2.7775,2.7869,2.7917,2.8016,2.8085,2.8126,2.8218,2.826,2.8297,2.8307,2.8232,2.8236,2.823,2.8211,2.8298,2.8298,2.8298,2.8298,2.7827,2.7835,2.7942,2.8016,2.8092,2.8141,2.8248,2.8308,2.8366,2.8395,2.8387,2.8364,2.8356,2.8366,2.8357,2.8339,2.8457,2.8457,2.8458,2.7889,2.7906,2.7991,2.8053,2.8134,2.8203,2.8306,2.8389,2.8452,2.8465,2.8419,2.8412,2.8375,2.8361,2.837,2.8355,2.8323,0,0]}]]